Kincheloe, MI

1:35 PM EDT on July 28, 2016 (GMT -0400)
Chippewa County International

Weather History for KCIU - February, 2012

Change the Weather History Date:

Tuesday, February 21, 2012

  Actual Average Record
Temperature  
Mean Temperature 29 °F -  
Max Temperature 35 °F 32 °F 48 °F (1983)
Min Temperature 23 °F 12 °F -18 °F (1993)
Degree Days  
Heating Degree Days 36    
Moisture  
Dew Point 26 °F    
Average Humidity 85    
Maximum Humidity 100    
Minimum Humidity 70    
Precipitation  
Precipitation 0.00 in - - ()
Sea Level Pressure  
Sea Level Pressure 29.69 in    
Wind  
Wind Speed 12 mph (SE)    
Max Wind Speed 22 mph    
Max Gust Speed 28 mph    
Visibility 10 miles    
Events      
Averages and records for this station are not official NWS values.
T = Trace of Precipitation, MM = Missing Value Source: NWS Daily Summary

Daily Weather History Graph

Daily Weather History Graph

Search for Another Location

Airport or City:

Trip Planner

Search our weather history database for the weather conditions in past years. The results will help you decide how hot, cold, wet, or windy it might be!

Date:

Astronomy

Feb. 21, 2012 Rise Set
Actual Time 7:31 AM EST 6:11 PM EST
Civil Twilight 7:01 AM EST 6:42 PM EST
Nautical Twilight 6:26 AM EST 7:17 PM EST
Astronomical Twilight 5:51 AM EST 7:52 PM EST
Moon 6:58 AM EST (2/21) 6:20 PM EST (2/21)
Length of Visible Light 11h 40m
Length of Day
10h 39m
Waning Crescent, 0% of the Moon is Illuminated
Feb 21
Waning Crescent
Feb 21
New
Feb 29
First Quarter
Mar 8
Full
Mar 14
Last Quarter

Hourly Weather History & Observations

Time (EST) Temp. Windchill Dew Point Humidity Pressure Visibility Wind Dir Wind Speed Gust Speed Precip Events Conditions
12:15 AM 24.8 °F 14.6 °F 23.0 °F 93% 30.03 in 10.0 mi SE 10.4 mph - N/A   Clear
12:35 AM 24.8 °F 16.1 °F 23.0 °F 93% 30.02 in 10.0 mi SSE 8.1 mph - N/A   Clear
12:55 AM 24.8 °F 15.3 °F 23.0 °F 93% 30.01 in 10.0 mi SE 9.2 mph - N/A   Clear
1:15 AM 24.8 °F 16.1 °F 21.2 °F 86% 30.00 in 10.0 mi SE 8.1 mph - N/A   Clear
1:35 AM 24.8 °F 15.3 °F 21.2 °F 86% 29.99 in 10.0 mi SSE 9.2 mph - N/A   Clear
1:55 AM 23.0 °F 13.1 °F 21.2 °F 93% 29.98 in 10.0 mi SE 9.2 mph - N/A   Clear
2:15 AM 23.0 °F 13.9 °F 21.2 °F 93% 29.98 in 10.0 mi SE 8.1 mph - N/A   Clear
2:35 AM 24.8 °F 14.0 °F 24.8 °F 100% 29.97 in 10.0 mi ESE 11.5 mph - N/A   Clear
2:55 AM 26.6 °F 15.7 °F 26.6 °F 100% 29.95 in 10.0 mi ESE 12.7 mph - N/A   Clear
3:15 AM 26.6 °F 16.2 °F 26.6 °F 100% 29.94 in 10.0 mi SE 11.5 mph - N/A   Clear
3:35 AM 26.6 °F 14.7 °F 26.6 °F 100% 29.92 in 10.0 mi SE 15.0 mph - N/A   Clear
3:55 AM 28.4 °F 18.0 °F 26.6 °F 93% 29.90 in 10.0 mi SE 12.7 mph - N/A   Clear
4:15 AM 28.4 °F 18.0 °F 26.6 °F 93% 29.89 in 10.0 mi SE 12.7 mph - N/A   Clear
4:35 AM 28.4 °F 19.1 °F 24.8 °F 86% 29.88 in 10.0 mi SE 10.4 mph - N/A   Clear
4:55 AM 26.6 °F 15.7 °F 26.6 °F 100% 29.86 in 10.0 mi ESE 12.7 mph - N/A   Scattered Clouds
5:15 AM 28.4 °F 19.1 °F 24.8 °F 86% 29.86 in 10.0 mi SE 10.4 mph - N/A   Mostly Cloudy
5:35 AM 26.6 °F 15.2 °F 26.6 °F 100% 29.84 in 10.0 mi SE 13.8 mph - N/A   Partly Cloudy
5:55 AM 28.4 °F 18.5 °F 26.6 °F 93% 29.82 in 10.0 mi ESE 11.5 mph - N/A   Clear
6:15 AM 28.4 °F 18.0 °F 26.6 °F 93% 29.81 in 10.0 mi SE 12.7 mph - N/A   Clear
6:35 AM 26.6 °F 15.2 °F 24.8 °F 93% 29.79 in 10.0 mi ESE 13.8 mph - N/A   Clear
6:55 AM 26.6 °F 14.7 °F 24.8 °F 93% 29.77 in 10.0 mi ESE 15.0 mph - N/A   Partly Cloudy
7:15 AM 28.4 °F 17.0 °F 24.8 °F 86% 29.74 in 10.0 mi ESE 15.0 mph - N/A   Mostly Cloudy
7:35 AM 28.4 °F 17.0 °F 24.8 °F 86% 29.75 in 10.0 mi SSE 15.0 mph - N/A   Mostly Cloudy
7:55 AM 28.4 °F 17.5 °F 24.8 °F 86% 29.74 in 10.0 mi SE 13.8 mph - N/A   Mostly Cloudy
8:15 AM 28.4 °F 18.0 °F 24.8 °F 86% 29.73 in 10.0 mi SE 12.7 mph - N/A   Scattered Clouds
8:35 AM 28.4 °F 19.7 °F 24.8 °F 86% 29.73 in 10.0 mi SSE 9.2 mph - N/A   Clear
8:55 AM 28.4 °F 17.0 °F 26.6 °F 93% 29.71 in 10.0 mi SE 15.0 mph - N/A   Scattered Clouds
9:15 AM 30.2 °F 20.2 °F 26.6 °F 86% 29.70 in 10.0 mi SE 12.7 mph - N/A   Scattered Clouds
9:35 AM 30.2 °F 19.3 °F 26.6 °F 86% 29.69 in 10.0 mi SE 15.0 mph - N/A   Clear
9:55 AM 32.0 °F 22.1 °F 26.6 °F 80% 29.68 in 10.0 mi SE 13.8 mph - N/A   Clear
10:15 AM 33.8 °F 21.9 °F 26.6 °F 75% 29.66 in 10.0 mi SE 21.9 mph 27.6 mph N/A   Scattered Clouds
10:35 AM 33.8 °F 23.2 °F 28.4 °F 81% 29.65 in 10.0 mi SE 17.3 mph 25.3 mph N/A   Mostly Cloudy
10:55 AM 33.8 °F 22.8 °F 28.4 °F 81% 29.64 in 10.0 mi SE 18.4 mph - N/A   Mostly Cloudy
11:15 AM 33.8 °F 23.2 °F 26.6 °F 75% 29.62 in 10.0 mi SSE 17.3 mph - N/A   Mostly Cloudy
11:35 AM 33.8 °F 22.5 °F 26.6 °F 75% 29.61 in 10.0 mi SSE 19.6 mph 24.2 mph N/A   Mostly Cloudy
11:55 AM 35.6 °F 25.2 °F 26.6 °F 70% 29.61 in 10.0 mi SE 18.4 mph 23.0 mph N/A   Mostly Cloudy
12:15 PM 33.8 °F 23.9 °F 26.6 °F 75% 29.59 in 10.0 mi SE 15.0 mph - N/A   Scattered Clouds
12:35 PM 35.6 °F 25.5 °F 26.6 °F 70% 29.58 in 10.0 mi SE 17.3 mph - N/A   Partly Cloudy
12:55 PM 33.8 °F 23.9 °F 26.6 °F 75% 29.55 in 10.0 mi SE 15.0 mph - N/A   Scattered Clouds
1:15 PM 33.8 °F 24.8 °F 26.6 °F 75% 29.53 in 10.0 mi SE 12.7 mph - N/A   Mostly Cloudy
1:35 PM 33.8 °F 24.3 °F 26.6 °F 75% 29.52 in 10.0 mi SE 13.8 mph - N/A   Partly Cloudy
1:55 PM 33.8 °F 25.3 °F 26.6 °F 75% 29.50 in 10.0 mi SE 11.5 mph - N/A   Scattered Clouds
2:15 PM 35.6 °F 28.0 °F 26.6 °F 70% 29.49 in 10.0 mi SE 10.4 mph - N/A   Overcast
2:35 PM 35.6 °F 27.5 °F 26.6 °F 70% 29.49 in 10.0 mi SE 11.5 mph - N/A   Overcast
2:55 PM 35.6 °F 27.5 °F 26.6 °F 70% 29.48 in 10.0 mi SE 11.5 mph - N/A   Overcast
3:15 PM 35.6 °F 27.1 °F 26.6 °F 70% 29.47 in 10.0 mi SE 12.7 mph - N/A   Overcast
3:35 PM 35.6 °F 26.6 °F 26.6 °F 70% 29.46 in 10.0 mi SE 13.8 mph - N/A   Overcast
3:55 PM 35.6 °F 27.5 °F 28.4 °F 75% 29.46 in 10.0 mi SSE 11.5 mph - N/A   Overcast
4:15 PM 35.6 °F 28.0 °F 28.4 °F 75% 29.46 in 10.0 mi SE 10.4 mph - N/A   Overcast
4:35 PM 35.6 °F 27.5 °F 28.4 °F 75% 29.46 in 10.0 mi SSE 11.5 mph - N/A   Overcast
4:55 PM 35.6 °F 27.5 °F 28.4 °F 75% 29.46 in 10.0 mi SSE 11.5 mph - N/A   Overcast
5:15 PM 35.6 °F 29.2 °F 28.4 °F 75% 29.46 in 9.0 mi SSE 8.1 mph - N/A   Overcast
5:35 PM 33.8 °F 26.4 °F 30.2 °F 87% 29.45 in 10.0 mi SE 9.2 mph - N/A   Overcast
5:55 PM 33.8 °F 27.0 °F 30.2 °F 87% 29.45 in 7.0 mi SE 8.1 mph - N/A   Overcast
6:15 PM 33.8 °F 26.4 °F 30.2 °F 87% 29.44 in 5.0 mi SE 9.2 mph - N/A   Overcast
6:35 PM 32.0 °F 24.8 °F 30.2 °F 93% 29.44 in 3.0 mi SE 8.1 mph - N/A   Overcast
6:55 PM 32.0 °F 24.8 °F 30.2 °F 93% 29.44 in 7.0 mi SSE 8.1 mph - N/A   Overcast
7:15 PM 32.0 °F 24.8 °F 30.2 °F 93% 29.43 in 7.0 mi SE 8.1 mph - N/A   Overcast
7:35 PM 32.0 °F 24.2 °F 30.2 °F 93% 29.42 in 2.5 mi SE 9.2 mph - N/A   Overcast
7:55 PM 32.0 °F 24.2 °F 32.0 °F 100% 29.42 in 2.0 mi SE 9.2 mph - N/A   Overcast
8:15 PM 32.0 °F 24.2 °F 32.0 °F 100% 29.41 in 2.0 mi SE 9.2 mph - N/A   Overcast
8:35 PM 32.0 °F 24.2 °F 32.0 °F 100% 29.40 in 2.5 mi SSE 9.2 mph - N/A   Overcast
8:55 PM 32.0 °F 27.5 °F 32.0 °F 100% 29.39 in 2.0 mi SSE 4.6 mph - N/A   Overcast
9:15 PM 32.0 °F 26.4 °F 32.0 °F 100% 29.39 in 5.0 mi South 5.8 mph - 0.01 in   Overcast
9:35 PM 33.8 °F 27.7 °F 33.8 °F 100% 29.39 in 5.0 mi South 6.9 mph - 0.01 in   Overcast
9:55 PM 33.8 °F 27.7 °F 33.8 °F 100% 29.39 in 5.0 mi SSW 6.9 mph - 0.01 in   Overcast
10:15 PM 33.8 °F 28.6 °F 33.8 °F 100% 29.38 in 5.0 mi SW 5.8 mph - N/A   Overcast
10:35 PM 33.8 °F 27.0 °F 33.8 °F 100% 29.39 in 9.0 mi WSW 8.1 mph - N/A   Overcast
10:55 PM 33.8 °F 27.7 °F 32.0 °F 93% 29.39 in 10.0 mi SW 6.9 mph - N/A   Overcast
11:15 PM 33.8 °F 27.7 °F 32.0 °F 93% 29.39 in 10.0 mi SW 6.9 mph - N/A   Overcast
11:35 PM 33.8 °F 27.0 °F 32.0 °F 93% 29.39 in 10.0 mi SW 8.1 mph - N/A   Overcast
11:55 PM 33.8 °F 27.7 °F 33.8 °F 100% 29.38 in 10.0 mi SW 6.9 mph - N/A   Overcast